Wind_Speed
16 16 17 16 15 19 19 17 18 17 16 20 21 20 20 21 19 17 18 18 18 17 17 16 16 16 11 5 6 7 5 1 15 18 15 14 13 10 10 6 7 10 9 2 4 9 14
18 17 17 18 17 15 18 19 19 17 17 18 21 20 20 21 21 19 18 17 18 17 16 16 15 15 8 8 5 5 5 6 14 14 13 13 8 9 5 8 10 1 3 2 6 10 6
19 18 17 17 19 18 16 19 20 19 17 17 16 16 20 22 23 21 18 17 17 16 15 15 14 14 12 13 7 4 4 11 13 15 12 12 8 8 3 6 8 6 8 8 5 4 12
21 21 18 17 19 19 18 16 20 22 21 19 16 15 19 23 24 24 18 17 17 15 15 14 13 12 9 13 9 14 11 9 15 14 9 7 10 7 6 1 6 10 6 12 9 2 3
21 22 22 19 19 19 18 18 17 21 23 22 24 15 19 22 25 25 18 16 16 14 13 12 11 7 9 10 9 11 15 12 10 11 7 6 9 10 8 11 9 9 11 6 7 10 3
23 22 23 22 19 19 19 19 17 18 21 23 23 22 19 20 25 24 18 15 13 12 10 9 12 6 14 3 6 7 12 16 11 14 7 8 9 10 10 11 10 6 8 6 3 7 12
23 24 23 23 22 19 19 18 18 16 19 21 24 21 18 21 23 22 17 8 5 4 9 10 5 5 1 4 7 7 11 17 14 17 12 15 10 14 16 15 9 3 3 3 6 5 7
23 24 24 25 24 21 19 19 18 16 17 19 20 20 16 21 18 20 15 4 2 4 10 17 25 21 14 3 3 10 16 16 19 18 16 8 16 12 8 11 10 9 7 4 5 5 4
25 25 25 26 25 23 21 20 19 18 18 19 19 20 19 17 16 20 12 6 4 6 7 9 16 17 16 17 8 13 21 20 19 20 19 15 2 11 12 13 13 12 11 9 2 9 6
26 26 26 26 27 24 23 21 19 19 18 18 18 18 24 11 15 10 8 9 5 2 5 6 9 9 14 12 11 15 22 19 12 19 17 13 9 9 14 15 15 12 6 9 12 12 2
28 26 27 27 27 25 24 22 20 19 19 18 17 18 20 13 9 7 6 6 3 4 6 10 7 7 11 22 13 18 23 19 18 14 12 11 14 13 15 15 14 9 2 11 14 9 6
30 28 27 27 27 26 23 23 21 19 18 18 16 19 22 15 17 15 13 6 9 6 9 8 9 12 12 18 10 21 19 14 16 12 16 6 5 15 13 4 7 10 14 11 9 5 8
32 30 29 28 28 27 24 23 22 19 18 17 16 18 25 21 7 8 8 5 6 9 5 9 9 11 17 14 13 20 21 20 16 16 14 14 12 8 15 13 13 8 15 6 7 7 4
32 31 30 30 28 28 26 24 22 18 16 16 17 17 26 27 16 12 9 6 12 10 8 5 8 14 16 17 15 21 21 19 18 17 14 14 17 15 14 11 8 15 11 6 6 4 3
30 30 30 30 29 29 26 25 23 18 14 14 16 18 27 25 21 11 4 13 10 8 11 9 15 17 11 21 9 17 22 22 15 16 11 13 12 11 8 6 11 12 8 2 3 2 5
31 29 30 30 30 29 28 26 23 18 13 12 14 9 27 14 18 13 5 16 11 7 3 13 11 14 18 24 14 17 21 21 20 18 4 9 10 8 7 9 4 9 12 5 4 5 7
31 32 31 31 30 27 27 26 24 17 12 12 12 6 16 19 19 18 10 18 10 12 9 7 11 10 14 24 16 18 21 11 21 19 9 7 7 8 9 9 14 7 7 1 2 3 5
33 32 33 32 31 29 28 26 24 17 13 12 9 4 11 21 18 17 15 24 6 14 11 9 5 5 14 20 14 16 20 10 29 19 12 6 3 11 10 4 3 2 4 6 4 4 2
34 33 34 34 31 29 28 27 24 17 17 11 6 10 10 22 11 13 14 23 18 8 6 2 8 8 10 20 9 9 16 2 20 14 14 10 7 9 8 6 4 4 4 3 6 2 4
36 33 34 35 32 29 28 28 24 19 19 16 3 4 6 16 20 16 21 19 21 13 15 9 5 7 14 18 6 10 11 6 11 10 6 7 3 7 9 8 8 9 8 4 1 4 3
34 32 32 34 31 31 30 28 24 21 20 18 9 5 7 5 14 12 19 14 21 12 12 6 5 13 17 17 11 12 11 11 6 9 5 2 5 6 8 7 7 10 9 5 4 4 3
32 31 31 32 31 30 32 29 23 23 22 18 4 6 6 12 27 20 17 25 17 21 12 7 10 9 15 17 12 18 14 13 9 5 5 1 5 11 10 10 12 14 10 10 9 9 11
29 29 30 32 32 30 32 28 24 27 24 15 16 28 12 13 19 19 17 20 21 15 13 21 9 9 12 16 13 21 19 14 15 11 5 4 8 7 5 10 13 8 6 5 8 3 16
26 27 29 31 30 32 30 27 26 25 22 18 23 8 7 7 12 17 22 18 15 20 12 8 11 9 2 18 26 24 22 21 15 8 4 13 10 3 8 8 5 5 2 4 11 11 7
24 25 26 28 31 33 29 25 25 22 22 19 25 19 7 3 12 13 25 16 18 18 13 17 18 10 21 15 13 13 8 9 7 9 6 10 6 5 6 7 5 6 8 11 13 9 9
21 24 27 30 30 29 26 23 23 23 21 19 21 19 14 4 7 10 21 23 12 12 9 14 12 10 7 6 8 10 5 9 6 6 5 8 8 5 5 5 5 7 15 16 10 9 15
21 21 26 27 27 26 22 22 22 22 18 19 18 19 13 4 9 6 13 20 17 8 4 2 7 10 5 6 8 6 4 3 7 9 8 7 5 7 8 3 4 8 20 15 7 8 28
22 24 26 25 23 22 22 21 21 19 16 15 16 15 17 6 17 7 4 5 20 13 6 7 8 6 4 6 4 4 4 3 5 5 8 7 7 4 4 4 5 16 14 8 7 27 33
25 25 24 21 19 20 20 19 19 16 14 14 17 11 20 13 9 9 12 15 15 15 4 4 4 6 4 4 3 4 4 4 7 5 2 5 1 5 2 2 9 22 9 9 20 33 31
Wind_Direction
319 323 323 321 311 287 280 284 288 302 291 295 306 316 320 323 318 310 301 297 292 286 288 290 293 298 322 276 252 234 245 44 178 172 182 189 196 215 238 240 225 241 261 283 23 54 78
309 312 315 319 318 306 288 278 283 286 287 295 285 302 314 320 321 313 302 297 292 289 288 291 292 296 312 261 250 237 234 187 178 180 188 199 219 223 271 246 236 5 263 64 76 118 106
311 310 314 309 315 312 299 283 276 279 293 286 288 290 307 315 319 316 302 298 293 287 284 285 289 293 285 256 237 212 199 182 188 192 207 210 215 201 221 228 232 250 243 172 63 170 140
297 296 311 308 308 308 307 293 279 274 281 285 310 285 302 309 313 315 305 301 291 287 280 278 282 290 261 264 239 221 213 195 194 197 196 223 216 230 230 239 206 240 235 216 67 185 155
278 286 296 303 306 311 307 301 285 281 269 277 284 307 293 303 311 312 307 300 292 288 279 272 274 261 269 258 237 227 207 194 193 190 192 189 178 213 200 223 213 199 250 220 128 28 171
277 278 282 289 297 303 308 303 298 283 280 272 281 283 289 297 307 310 308 301 294 287 267 257 246 263 239 200 183 186 195 186 180 177 169 171 189 204 219 214 230 223 221 213 66 47 78
277 273 273 276 286 294 299 302 297 293 282 280 266 278 288 290 302 309 315 326 299 255 227 218 225 246 137 243 207 206 190 167 174 184 195 192 210 211 211 216 264 254 237 201 112 91 79
277 268 269 268 273 283 293 300 294 286 289 284 272 268 284 270 298 305 311 291 206 303 297 247 243 247 239 246 243 187 172 172 182 195 196 184 225 224 236 215 218 222 217 158 112 112 113
274 270 266 265 267 275 281 294 293 287 285 294 277 261 263 254 297 299 288 220 233 324 269 265 226 230 231 217 229 197 182 195 194 203 196 213 178 214 207 199 215 222 235 176 231 148 126
272 269 266 261 261 266 272 281 289 285 281 293 284 255 243 271 292 279 278 196 245 261 267 206 208 227 191 188 225 200 191 185 195 209 204 226 209 207 206 214 216 232 224 225 169 187 226
269 265 263 259 256 260 265 270 281 281 278 284 287 270 256 255 243 282 254 202 259 167 250 138 155 166 181 183 143 188 185 200 195 192 191 197 197 191 211 223 210 259 235 179 182 206 187
268 264 260 257 252 252 259 264 273 277 276 278 283 277 257 266 244 261 262 242 162 219 235 175 150 176 167 200 198 149 173 205 209 183 219 238 209 206 221 100 210 134 129 145 180 199 237
262 261 257 256 252 250 252 258 264 272 273 272 284 277 260 245 235 248 245 200 191 229 130 172 183 179 184 181 179 176 176 187 183 189 198 198 194 156 146 103 150 193 172 166 203 207 315
263 258 255 251 250 247 247 251 257 265 266 270 278 281 250 241 249 252 271 227 218 188 215 134 159 171 183 170 177 181 178 186 207 199 185 187 195 188 187 191 187 195 213 277 265 274 28
261 256 253 246 248 242 241 244 252 259 264 264 286 290 260 249 218 222 231 208 205 202 195 164 153 166 181 185 172 182 193 192 183 199 184 193 192 171 192 191 193 184 223 41 121 54 262
259 258 250 245 243 241 236 237 246 252 254 256 281 277 266 223 205 195 213 225 219 225 295 182 180 191 185 185 182 188 189 205 190 200 238 200 182 201 144 167 170 241 139 187 203 260 295
256 252 248 243 237 236 227 232 240 242 239 246 272 243 249 208 196 201 220 209 233 256 267 215 207 189 196 183 192 188 187 179 192 189 205 168 228 158 168 208 186 166 179 51 62 320 299
255 251 245 239 235 232 228 228 232 232 223 232 250 248 209 190 190 214 221 212 262 267 261 243 262 220 191 178 186 186 182 190 188 175 190 188 226 173 181 73 291 22 133 194 257 140 54
255 252 240 234 233 229 223 221 223 220 214 216 223 238 195 179 206 203 219 224 232 274 249 233 226 231 194 172 176 169 177 140 171 182 176 177 173 149 150 155 167 135 110 130 110 113 205
248 247 234 229 226 221 215 216 216 212 207 221 265 235 156 196 232 216 204 212 219 244 260 264 269 202 179 175 176 171 145 146 156 166 134 143 138 210 189 171 141 142 142 135 191 230 135
238 234 228 222 219 214 210 212 207 206 203 201 219 263 187 171 211 212 208 210 216 232 226 249 225 229 180 170 165 160 142 134 130 142 117 201 114 100 82 113 133 137 135 135 113 83 265
224 221 218 212 210 209 203 205 202 202 201 213 234 251 254 199 199 208 209 219 219 215 250 229 232 214 206 178 186 169 161 164 163 164 139 123 123 119 64 114 126 113 106 102 105 100 106
210 212 208 204 203 198 198 199 200 206 201 219 241 264 271 193 191 196 212 218 213 220 241 247 282 321 206 204 189 162 157 156 152 156 134 124 141 149 119 138 130 120 120 108 112 130 144
200 201 201 198 198 195 194 195 200 209 211 225 223 264 269 206 199 206 207 213 216 218 245 290 305 271 196 132 113 104 103 109 108 80 133 136 120 95 144 167 208 82 151 127 122 123 98
192 190 196 192 190 191 193 194 205 212 212 232 231 245 295 305 223 205 206 210 222 236 250 265 283 258 170 151 127 125 128 126 78 48 99 159 128 113 156 183 112 142 166 158 149 132 152
189 189 191 180 179 183 187 196 206 209 211 231 237 246 263 293 231 191 200 203 209 222 245 246 258 244 204 210 157 151 156 141 142 114 96 108 138 125 167 177 190 121 156 167 140 153 161
183 184 178 171 174 179 189 197 203 210 215 221 232 231 260 256 284 221 195 207 209 203 246 198 167 190 209 191 153 144 117 121 148 144 156 141 138 157 160 146 119 142 150 151 200 127 161
179 177 170 167 171 180 190 197 201 209 226 220 239 226 250 232 268 261 253 236 192 217 228 132 153 207 185 181 131 129 132 113 114 120 167 169 153 155 165 156 168 163 149 200 105 144 150
164 152 158 166 174 182 190 195 198 211 221 217 241 262 203 233 262 274 257 235 248 224 286 242 332 159 167 119 116 130 123 153 142 138 153 168 195 156 279 97 117 150 109 124 141 144 151
Height
1539 1538 1536 1536 1536 1535 1536 1537 1537 1536 1534 1534 1533 1532 1530 1527 1524 1523 1522 1520 1519 1518 1516 1515 1514 1513 1514 1514 1510 1508 1507 1508 1508 1511 1515 1517 1518 1517 1515 1514 1515 1515 1512 1514 1517 1519 1519
1538 1536 1535 1533 1533 1532 1532 1533 1534 1533 1532 1532 1531 1530 1528 1525 1523 1520 1520 1518 1516 1515 1514 1513 1511 1511 1512 1512 1505 1506 1506 1508 1509 1512 1515 1516 1516 1517 1516 1515 1515 1512 1513 1516 1517 1519 1523
1535 1534 1533 1531 1530 1529 1529 1529 1530 1530 1530 1529 1527 1527 1526 1523 1520 1519 1517 1516 1513 1512 1511 1510 1509 1509 1508 1506 1504 1504 1505 1507 1508 1511 1514 1515 1516 1517 1515 1514 1515 1514 1512 1513 1519 1519 1522
1532 1531 1531 1529 1528 1527 1525 1525 1525 1526 1526 1526 1524 1523 1522 1522 1520 1517 1515 1512 1511 1510 1509 1508 1508 1508 1503 1499 1499 1501 1503 1506 1507 1509 1512 1513 1515 1517 1516 1515 1513 1510 1509 1507 1520 1518 1519
1529 1528 1527 1527 1526 1524 1523 1521 1521 1521 1522 1522 1521 1521 1521 1519 1517 1514 1512 1510 1508 1506 1507 1507 1508 1507 1502 1495 1497 1497 1500 1504 1507 1509 1510 1511 1514 1515 1515 1510 1507 1505 1504 1505 1516 1519 1516
1524 1524 1523 1523 1522 1521 1520 1518 1518 1517 1517 1518 1518 1518 1517 1517 1516 1513 1511 1507 1505 1504 1505 1506 1505 1509 1496 1495 1495 1496 1496 1501 1505 1508 1511 1512 1511 1509 1506 1504 1508 1503 1508 1508 1510 1522 1522
1518 1518 1519 1518 1518 1518 1516 1515 1514 1514 1513 1513 1514 1515 1515 1515 1514 1511 1508 1506 1508 1506 1502 1497 1497 1493 1492 1493 1493 1494 1495 1498 1503 1506 1502 1506 1503 1501 1497 1498 1495 1500 1504 1506 1517 1525 1526
1512 1512 1513 1513 1513 1513 1513 1511 1511 1511 1510 1510 1510 1511 1512 1513 1512 1509 1508 1507 1507 1508 1498 1490 1491 1490 1489 1490 1492 1492 1494 1495 1497 1496 1496 1504 1499 1491 1494 1496 1501 1501 1504 1509 1523 1525 1525
1505 1506 1506 1507 1508 1508 1508 1508 1507 1507 1507 1506 1506 1507 1508 1509 1508 1508 1506 1507 1506 1505 1501 1486 1484 1483 1485 1490 1489 1487 1491 1490 1491 1491 1493 1489 1488 1491 1496 1499 1501 1499 1500 1504 1505 1523 1524
1499 1500 1500 1501 1502 1503 1504 1504 1504 1504 1503 1503 1502 1503 1504 1506 1510 1505 1505 1505 1505 1504 1493 1474 1477 1473 1478 1485 1484 1483 1485 1489 1487 1487 1488 1488 1487 1492 1494 1493 1495 1498 1492 1497 1512 1513 1510
1492 1493 1493 1494 1495 1497 1499 1499 1500 1499 1499 1499 1499 1499 1499 1503 1503 1505 1504 1502 1502 1504 1485 1464 1470 1470 1473 1475 1470 1476 1481 1486 1481 1482 1488 1486 1487 1491 1493 1490 1489 1492 1496 1497 1506 1504 1511
1484 1485 1486 1487 1489 1491 1493 1494 1494 1494 1495 1495 1495 1495 1495 1499 1499 1501 1501 1501 1503 1498 1481 1462 1463 1465 1470 1470 1468 1471 1478 1482 1480 1481 1483 1476 1483 1485 1484 1491 1490 1498 1500 1504 1504 1502 1509
1476 1477 1479 1480 1482 1485 1487 1489 1490 1490 1490 1491 1491 1490 1490 1494 1498 1498 1499 1500 1495 1478 1453 1455 1455 1459 1459 1462 1462 1465 1468 1473 1473 1484 1484 1479 1481 1482 1487 1493 1497 1494 1494 1503 1510 1507 1505
1467 1468 1471 1473 1475 1478 1480 1483 1484 1486 1486 1487 1487 1487 1487 1488 1492 1495 1496 1496 1476 1447 1450 1444 1448 1454 1456 1455 1457 1459 1464 1468 1463 1465 1471 1481 1489 1479 1479 1479 1486 1489 1484 1489 1511 1503 1498
1458 1460 1462 1465 1467 1470 1474 1477 1479 1481 1482 1483 1482 1479 1480 1482 1487 1492 1496 1479 1448 1446 1439 1444 1449 1453 1451 1451 1453 1458 1458 1458 1462 1460 1468 1471 1472 1468 1475 1477 1478 1487 1493 1480 1496 1506 1503
1448 1451 1453 1456 1460 1463 1467 1470 1473 1476 1478 1479 1479 1478 1473 1477 1482 1488 1490 1459 1444 1446 1444 1439 1442 1439 1447 1446 1450 1451 1456 1453 1458 1461 1461 1463 1474 1471 1477 1478 1481 1477 1476 1490 1485 1508 1508
1438 1441 1444 1448 1452 1455 1460 1464 1467 1472 1474 1476 1476 1475 1468 1470 1477 1480 1470 1453 1448 1446 1446 1441 1434 1440 1434 1439 1440 1445 1451 1450 1454 1459 1463 1460 1463 1478 1475 1475 1470 1480 1479 1483 1482 1492 1501
1428 1431 1435 1439 1444 1449 1454 1458 1462 1467 1470 1473 1473 1468 1462 1465 1471 1464 1461 1452 1450 1446 1442 1440 1438 1431 1431 1434 1440 1441 1446 1443 1450 1455 1462 1461 1462 1475 1471 1477 1475 1470 1472 1475 1485 1498 1500
1418 1421 1425 1430 1436 1441 1447 1452 1457 1462 1464 1468 1470 1464 1459 1461 1452 1451 1456 1454 1451 1447 1438 1434 1432 1430 1427 1431 1441 1439 1440 1448 1450 1453 1455 1461 1464 1478 1482 1481 1476 1475 1480 1480 1481 1485 1497
1406 1410 1415 1421 1428 1434 1440 1446 1451 1456 1460 1463 1463 1456 1452 1455 1451 1447 1451 1448 1447 1444 1441 1438 1433 1428 1425 1428 1430 1441 1442 1450 1452 1453 1456 1458 1463 1459 1472 1468 1467 1482 1483 1482 1480 1488 1492
1395 1400 1406 1413 1420 1427 1434 1440 1447 1451 1455 1462 1462 1451 1443 1445 1448 1446 1444 1440 1441 1441 1435 1433 1426 1424 1419 1426 1431 1432 1439 1448 1453 1456 1458 1456 1469 1473 1474 1474 1471 1477 1482 1484 1487 1490 1495
1385 1392 1399 1406 1414 1420 1428 1434 1441 1446 1450 1454 1454 1449 1441 1433 1441 1443 1440 1435 1433 1433 1435 1425 1428 1419 1416 1420 1421 1429 1430 1436 1444 1455 1455 1459 1478 1472 1484 1478 1480 1486 1487 1490 1495 1497 1501
1378 1385 1392 1400 1408 1415 1422 1430 1436 1439 1445 1447 1449 1445 1446 1426 1431 1435 1429 1432 1433 1434 1430 1427 1427 1424 1421 1416 1419 1424 1429 1434 1440 1446 1453 1456 1467 1470 1494 1484 1485 1497 1493 1493 1499 1501 1503
1373 1380 1388 1395 1403 1411 1418 1425 1430 1434 1440 1442 1443 1442 1439 1424 1421 1424 1430 1433 1431 1431 1428 1427 1428 1425 1421 1421 1424 1429 1434 1438 1444 1449 1447 1455 1463 1471 1489 1491 1506 1498 1498 1495 1500 1505 1510
1371 1377 1384 1391 1399 1407 1415 1422 1426 1431 1434 1437 1439 1440 1436 1428 1421 1423 1426 1429 1431 1430 1431 1430 1424 1425 1424 1419 1422 1430 1439 1440 1451 1454 1452 1450 1457 1480 1491 1486 1496 1498 1498 1498 1499 1513 1513
1370 1375 1382 1389 1397 1405 1413 1418 1422 1427 1432 1435 1434 1438 1439 1433 1421 1418 1421 1424 1424 1426 1428 1422 1422 1421 1424 1415 1416 1430 1441 1438 1453 1457 1457 1455 1453 1463 1485 1489 1495 1479 1488 1493 1496 1512 1518
1370 1375 1380 1388 1397 1405 1411 1415 1419 1423 1429 1431 1432 1434 1435 1430 1422 1421 1416 1417 1422 1423 1421 1418 1419 1422 1422 1411 1416 1428 1442 1439 1447 1451 1458 1459 1460 1465 1475 1481 1483 1482 1489 1494 1501 1497 1513
1370 1375 1381 1390 1398 1404 1408 1412 1417 1420 1423 1424 1426 1429 1431 1427 1421 1420 1418 1417 1418 1419 1416 1415 1418 1418 1418 1411 1418 1429 1433 1443 1449 1451 1451 1455 1463 1468 1472 1478 1490 1485 1492 1491 1493 1501 1509
1371 1377 1385 1392 1397 1402 1407 1411 1415 1419 1421 1423 1424 1423 1425 1426 1421 1416 1415 1415 1415 1416 1419 1414 1410 1409 1409 1410 1416 1425 1436 1443 1443 1454 1459 1462 1454 1460 1462 1467 1479 1483 1485 1493 1496 1499 1513